Total_Precipitation_Accumulation
0.00 0.00 0.01 0.01 0.02 0.03 0.03 0.05 0.13 0.22 0.14 0.14 0.26 0.48 0.61 0.67 0.74 0.89 1.05 1.04 1.09 1.20 1.55 2.00 2.50 3.01 3.69 4.60 5.51 5.83 5.54 4.94 4.48 4.04 3.52 3.12 2.76 2.52 2.42 2.11 1.77 1.61 1.57 1.56
0.01 0.02 0.02 0.02 0.02 0.04 0.05 0.08 0.13 0.18 0.12 0.14 0.24 0.48 0.71 0.83 0.93 0.90 0.95 1.05 1.01 1.20 1.61 2.11 2.69 3.10 3.45 3.98 4.72 4.99 4.61 3.95 3.37 3.06 2.89 2.67 2.55 2.25 2.04 1.91 1.76 1.49 1.46 1.47
0.01 0.03 0.02 0.02 0.03 0.06 0.08 0.08 0.12 0.15 0.08 0.14 0.23 0.57 0.90 1.03 0.85 0.69 0.63 0.75 0.77 0.94 1.46 2.17 2.67 2.94 3.24 3.44 3.44 3.54 3.41 2.89 2.53 2.42 2.39 2.35 2.38 2.17 1.91 1.74 1.54 1.34 1.28 1.22
0.01 0.02 0.01 0.02 0.04 0.04 0.07 0.06 0.05 0.05 0.07 0.22 0.33 0.84 1.12 1.04 0.88 0.70 0.58 0.60 0.61 0.83 1.30 2.04 2.29 2.36 2.45 2.57 2.38 2.38 2.43 2.25 2.17 2.07 2.07 1.92 1.74 1.66 1.54 1.53 1.44 1.32 1.24 1.17
0.03 0.02 0.02 0.02 0.03 0.04 0.05 0.04 0.04 0.07 0.11 0.26 0.45 0.78 1.12 1.01 1.00 0.74 0.55 0.53 0.63 0.72 1.00 1.34 1.38 1.49 1.58 1.67 1.72 1.88 2.10 2.09 2.00 1.94 2.01 1.98 1.70 1.52 1.42 1.43 1.46 1.33 1.21 1.14
0.04 0.04 0.03 0.03 0.03 0.03 0.04 0.06 0.11 0.23 0.34 0.67 0.68 0.75 1.15 1.03 0.84 0.57 0.47 0.51 0.47 0.50 0.69 0.88 0.93 0.97 1.03 1.09 1.22 1.42 1.78 1.92 1.83 1.77 1.79 1.75 1.65 1.58 1.44 1.32 1.31 1.28 1.19 1.17
0.10 0.08 0.09 0.07 0.05 0.06 0.06 0.09 0.26 0.61 1.00 1.12 0.70 0.74 1.06 0.72 0.49 0.36 0.31 0.34 0.38 0.52 0.61 0.71 0.84 0.85 0.79 0.78 0.90 1.08 1.31 1.42 1.46 1.52 1.60 1.64 1.68 1.61 1.43 1.34 1.25 1.23 1.12 1.10
0.14 0.15 0.11 0.08 0.05 0.06 0.07 0.09 0.19 0.36 0.47 0.59 0.60 0.99 1.14 0.61 0.39 0.29 0.23 0.24 0.39 0.48 0.46 0.48 0.56 0.55 0.54 0.62 0.72 0.87 0.98 1.06 1.14 1.23 1.34 1.45 1.46 1.45 1.36 1.38 1.29 1.21 1.11 1.08
0.06 0.06 0.04 0.04 0.06 0.06 0.06 0.06 0.08 0.09 0.14 0.36 0.67 0.92 0.85 0.53 0.35 0.26 0.22 0.21 0.32 0.35 0.31 0.29 0.29 0.30 0.36 0.52 0.65 0.72 0.79 0.86 0.94 1.03 1.18 1.28 1.31 1.30 1.33 1.33 1.22 1.16 1.17 1.12
0.03 0.03 0.03 0.04 0.05 0.07 0.07 0.06 0.06 0.06 0.15 0.34 0.62 0.92 0.94 0.65 0.44 0.32 0.23 0.21 0.29 0.28 0.25 0.23 0.22 0.21 0.22 0.28 0.43 0.58 0.66 0.77 0.90 0.97 0.98 1.02 1.16 1.15 1.17 1.15 1.08 1.14 1.15 1.12
0.02 0.02 0.02 0.03 0.05 0.07 0.06 0.06 0.07 0.06 0.08 0.19 0.46 0.69 0.59 0.46 0.31 0.25 0.23 0.24 0.28 0.29 0.27 0.22 0.20 0.19 0.19 0.22 0.33 0.45 0.53 0.63 0.73 0.76 0.79 0.91 1.00 1.00 0.99 0.99 0.96 1.01 1.02 1.05
0.03 0.02 0.02 0.06 0.08 0.07 0.06 0.06 0.07 0.09 0.09 0.13 0.24 0.35 0.29 0.31 0.24 0.23 0.24 0.29 0.37 0.40 0.37 0.28 0.25 0.21 0.26 0.27 0.29 0.37 0.39 0.41 0.47 0.53 0.60 0.73 0.87 0.88 0.88 0.90 1.02 1.07 1.04 0.98
0.03 0.02 0.04 0.14 0.20 0.15 0.08 0.06 0.09 0.10 0.10 0.12 0.27 0.41 0.27 0.26 0.31 0.31 0.27 0.34 0.40 0.35 0.37 0.44 0.40 0.27 0.30 0.27 0.29 0.31 0.29 0.34 0.37 0.43 0.48 0.59 0.74 0.85 0.91 0.96 1.03 1.10 1.10 1.03
0.05 0.04 0.05 0.16 0.22 0.22 0.17 0.13 0.12 0.12 0.12 0.11 0.19 0.35 0.29 0.27 0.37 0.37 0.28 0.33 0.40 0.35 0.34 0.48 0.52 0.31 0.26 0.27 0.30 0.29 0.31 0.35 0.36 0.41 0.49 0.58 0.67 0.82 0.94 1.01 1.07 1.14 1.16 1.12
0.06 0.06 0.05 0.05 0.10 0.16 0.19 0.15 0.13 0.10 0.10 0.12 0.15 0.24 0.32 0.41 0.42 0.36 0.36 0.40 0.39 0.41 0.36 0.33 0.37 0.30 0.29 0.31 0.30 0.32 0.36 0.41 0.40 0.45 0.53 0.59 0.68 0.75 0.84 1.00 1.12 1.23 1.29 1.20
0.09 0.08 0.07 0.06 0.10 0.12 0.13 0.16 0.12 0.08 0.07 0.08 0.11 0.22 0.35 0.38 0.43 0.42 0.36 0.35 0.39 0.45 0.43 0.47 0.47 0.43 0.45 0.43 0.39 0.39 0.46 0.49 0.54 0.62 0.66 0.69 0.77 0.86 0.90 0.98 1.04 1.19 1.26 1.31
0.16 0.16 0.16 0.15 0.15 0.15 0.16 0.15 0.11 0.09 0.10 0.11 0.13 0.20 0.32 0.41 0.47 0.51 0.50 0.44 0.45 0.57 0.59 0.67 0.71 0.66 0.61 0.53 0.47 0.48 0.54 0.61 0.68 0.77 0.89 0.95 1.00 1.11 1.13 1.15 1.14 1.18 1.32 1.41
0.25 0.26 0.23 0.21 0.24 0.28 0.18 0.14 0.13 0.12 0.13 0.16 0.23 0.28 0.37 0.49 0.53 0.58 0.68 0.65 0.58 0.56 0.60 0.70 0.78 0.80 0.73 0.68 0.66 0.73 0.78 0.84 0.96 1.06 1.19 1.32 1.38 1.45 1.50 1.55 1.51 1.51 1.55 1.63
0.27 0.36 0.34 0.32 0.38 0.32 0.25 0.22 0.20 0.22 0.29 0.30 0.37 0.53 0.62 0.61 0.72 0.84 0.76 0.67 0.64 0.65 0.67 0.83 0.83 0.82 0.81 0.92 0.94 0.95 0.99 1.06 1.22 1.40 1.52 1.63 1.68 1.72 1.73 1.71 1.75 1.80 1.89 1.90
0.32 0.34 0.43 0.39 0.44 0.45 0.41 0.37 0.35 0.43 0.75 0.63 0.65 0.67 0.64 0.64 0.87 0.92 0.69 0.60 0.62 0.65 0.76 0.88 0.94 0.93 1.00 1.22 1.25 1.26 1.30 1.38 1.44 1.49 1.60 1.77 1.88 1.94 1.89 1.88 1.99 2.13 2.25 2.21
0.55 0.56 0.51 0.47 0.49 0.45 0.45 0.43 0.49 0.85 1.20 0.98 0.88 0.83 0.81 0.89 0.90 0.90 0.76 0.65 0.63 0.65 0.73 0.83 0.88 0.94 1.00 1.16 1.29 1.52 1.66 1.70 1.74 1.76 1.77 1.82 1.90 2.01 2.01 2.06 2.09 2.21 2.32 2.31
0.77 0.78 0.75 0.70 0.79 0.80 0.53 0.57 0.85 1.09 0.96 0.99 1.08 1.11 1.09 1.04 0.90 0.78 0.70 0.68 0.63 0.60 0.63 0.73 0.89 0.99 1.09 1.25 1.47 1.65 1.79 1.91 1.99 1.97 2.03 2.01 2.03 1.98 1.93 2.06 2.17 2.26 2.37 2.32
0.90 0.91 0.91 0.94 1.03 0.92 0.71 0.78 0.79 0.79 0.92 1.00 1.04 1.15 1.19 1.13 1.12 0.96 0.87 0.84 0.77 0.71 0.69 0.73 0.85 0.99 1.09 1.19 1.40 1.71 1.76 1.78 1.81 1.86 1.89 1.94 1.95 1.97 1.99 2.06 2.15 2.26 2.29 2.26
0.94 0.88 0.97 1.10 1.12 1.00 0.93 0.93 0.92 0.90 0.97 0.97 1.01 1.06 1.09 1.08 1.16 1.11 0.96 0.82 0.75 0.72 0.73 0.79 0.86 0.97 1.04 1.01 1.11 1.28 1.41 1.48 1.51 1.53 1.56 1.56 1.66 1.74 1.89 2.07 2.09 2.16 2.23 2.26
0.95 0.91 1.02 1.31 1.42 1.40 1.28 1.20 1.15 1.06 1.14 1.18 1.11 1.10 1.14 1.02 1.04 1.05 0.89 0.75 0.66 0.63 0.62 0.69 0.84 0.85 0.89 0.96 0.96 0.99 1.04 1.19 1.29 1.32 1.35 1.41 1.53 1.63 1.80 1.99 2.10 2.02 2.03 2.17
1.18 1.07 1.08 1.34 1.38 1.52 1.54 1.34 1.23 1.13 1.18 1.20 1.15 1.07 1.02 0.94 0.92 0.84 0.72 0.62 0.60 0.59 0.61 0.66 0.72 0.72 0.71 0.79 0.80 0.81 0.92 1.10 1.21 1.22 1.23 1.25 1.28 1.39 1.50 1.64 1.73 1.67 1.48 1.52